AAC-HSI-SAT3

导读 | 星芒AI

AAC-HSI-SAT3 是一颗由加拿大阿尔伯塔大学先进航天概念实验室(AAC)设计和建造的立方星,主要用于对地观测和高光谱成像研究。该卫星搭载高分辨率多光谱相机,旨在支持环境监测、农业管理和灾害响应等应用。作为教育和科研项目的一部分,AAC-HSI-SAT3 体现了学生在卫星设计、制造和任务规划方面的实践成果,展示了加拿大在小型卫星技术领域的创新能力。

基本信息
目录编号:
58848
目录名称:
AAC-HSI-SAT3
国际标识:
2023-174DH
轨道中心:
EARTH
卫星名称:
AAC-HSI-SAT3
卫星全名:
--
卫星状态:
在轨 (已飞行765 天)
发射日期:
2023-11-11 UTC
国别 :
英国 (GB)
星等 :
--
轨道信息
数据来源 国际轨道数据
星历时间: 2025-12-15T07:02:49+0800
19小时前
查看轨道信息
半长轴: 6900.322km
偏心率: 0.000932
轨道倾角: 97.369°
近地点辐角 291.683°
升交点赤经 49.315°
平近点角 68.341°
近地点: 515.755km
远地点: 528.619km
周期: 95.074分钟
每日圈数: 15.146029
详细信息
使用方式:
暂无
2D轨道图
3D轨道图
轨道高度分析图
轨道倾角分析图
轨道综合分析图
查看轨道综合分析图